Regional Weather Roundup
Issued by NWS Upton, NY

Current Version | Previous Version | Graphics & Text | Print | Product List | Glossary Off
Versions: 1 2 3 4 5 6 7 8 9 10 11 12 13 14 15 16 17 18 19 20 21 22 23 24 25 26 27 28 29 30 31 32 33 34 35 36 37 38 39 40 41 42 43 44 45 46 47 48 49 50
324 ASUS41 KOKX 200305 RWROKX Regional Weather Roundup National Weather Service New York NY 1100 PM EDT SAT MAY 19 2018 Note: "FAIR" indicates few or no clouds below 12,000 feet with no significant weather and/or obstructions to visibility. NYZ071-072-176-178-NJZ106-104-200400- New York City Metro Area CITY SKY/WX TMP DP RH WIND PRES REMARKS Central Park LGT RAIN 55 54 96 CALM 30.10F FOG Bronx Bot Gard N/A 54 52 94 NE3 30.09F Bronx Lehman C N/A 54 54 100 E6 N/A LaGuardia Arpt LGT RAIN 54 53 97 NE5 30.08F VSB 1/4 Queens College N/A 54 54 100 NE1 N/A Kennedy Intl LGT RAIN 57 57 100 E6 30.08F VSB 1/4 Breezy Point N/A 55 N/A N/A E5 N/A Brooklyn Coll N/A 57 57 100 NE2 N/A Staten Island N/A 57 57 100 E1 N/A Newark/Liberty LGT RAIN 56 56 100 NE3 30.07F VSB 1/2 Teterboro DRZL/FOG 56 55 97 CALM 30.06F VSB 1/2 $$ NYZ177-179-078>081-200400- Long Island New York CITY SKY/WX TMP DP RH WIND PRES REMARKS Jones Beach N/A 54 N/A N/A SE2 N/A Wantagh N/A 55 55 100 SE2 N/A Hempstead N/A 57 55 94 S2 30.10F Matinecock Pt N/A 52 N/A N/A NE6 N/A Farmingdale FOG 57 57 100 SE5 30.08F VSB 1/2 MacArthur/ISP FOG 58 58 100 SW8 30.08F VSB 1/8 Stony Brook N/A 57 55 94 S1 N/A Shirley FOG 58 58 100 S7 30.10F VSB 1/2 Mt Sinai Harb N/A N/A N/A N/A MISG N/A Westhampton LGT RAIN 57 56 96 SW8 30.11F VSB 3/4 East Hampton FOG 56 56 99 SW7 30.10F VSB 3/4 Southold N/A N/A N/A N/A SW6 N/A Montauk N/A 58 58 100 SW7 30.11S $$ NYZ052-065-067-200400- Hudson Valley CITY SKY/WX TMP DP RH WIND PRES REMARKS White Plains LGT RAIN 53 53 100 CALM 30.07F VSB 1/8 Larchmont Harb N/A 52 N/A N/A NE9 N/A Croton On Huds N/A 55 N/A N/A CALM N/A Somers N/A 54 52 94 SE1 N/A Brewster N/A 52 52 100 S1 N/A Newburgh DRIZZLE 54 54 100 CALM 30.09S FOG Montgomery CLOUDY 54 53 97 CALM 30.07S FOG Otisville N/A 52 52 100 S1 N/A Warwick N/A 55 55 100 NW2 N/A Suffern N/A 54 54 100 NW1 N/A Poughkeepsie CLOUDY 55 53 93 CALM 30.07S Albany CLOUDY 55 52 89 S8 30.02F $$ NJZ001-105-106-008-010-013-015-019>022-104-200400- New Jersey CITY SKY/WX TMP DP RH WIND PRES REMARKS Newark/Liberty LGT RAIN 56 56 100 NE3 30.07F VSB 1/2 Teterboro DRZL/FOG 56 55 97 CALM 30.06F VSB 1/2 Caldwell FOG 55 55 100 CALM 30.08F VSB 3/4 Somerville FOG 57 57 100 CALM 30.05F VSB 1/2 Linden FOG 57 57 98 CALM 30.08F VSB 3/4 Perth Amboy N/A 55 N/A N/A E5 N/A Sussex CLOUDY 55 55 100 CALM 30.07F FOG Andover N/A 57 57 100 CALM 30.07F Trenton FOG 58 57 97 E3 30.06F VSB 1/2 Millville CLOUDY 67 66 97 S5 30.08S Atlantic City CLOUDY 66 66 100 S8 30.09S Wrightstown FOG 64 64 100 SE6 30.04 VSB 5/8 Toms River CLOUDY 65 65 100 S7 30.08F Belmar FOG 58 58 100 E5 30.08F VSB 1/4 $$ PAZ047>061-062-071-200400- Eastern Pennsylvania CITY SKY/WX TMP DP RH WIND PRES REMARKS Philadelphia CLOUDY 63 62 97 E5 30.06F FOG Allentown LGT RAIN 57 55 93 NE3 30.06F VSB 1 Scranton CLOUDY 60 58 92 SW7G17 30.03S $$ CTZ002-004>006-009-010-012-RIZ004-006-007-MAZ004-011-015-200400- Southern New England In CT CITY SKY/WX TMP DP RH WIND PRES REMARKS Bradley Intl LGT RAIN 56 55 97 S7 30.07F FOG Hartford CLOUDY 55 55 100 VRB3 30.08F FOG Danbury LGT RAIN 52 52 100 CALM 30.09F FOG Wtrbury/Oxford LGT RAIN 52 52 100 S5 30.09F VSB 1/2 Norwalk Harbor N/A 52 N/A N/A NE6 N/A Bridgeport LGT RAIN 53 52 96 NE6 30.09F VSB 1/2 Meriden LGT RAIN 54 53 97 SW3 30.09S FOG New Haven LGT RAIN 54 54 100 CALM 30.09F VSB 1/2 Chester FOG 54 54 100 CALM 30.09F VSB<1/4 Groton LGT RAIN 54 54 100 SE3 30.09F VSB 1/4 Willimantic LGT RAIN 56 55 97 CALM 30.09F VSB 3/4 In RI CITY SKY/WX TMP DP RH WIND PRES REMARKS Providence LGT RAIN 54 54 100 S3 30.09F VSB 1/2 Block Island LGT RAIN 57 57 100 SW15 30.11S VSB 3/4 Westerly LGT RAIN 56 56 100 S5 30.11S VSB 1/4 In MA CITY SKY/WX TMP DP RH WIND PRES REMARKS Boston CLOUDY 54 52 93 CALM 30.08F FOG Worcester FOG 51 51 100 S3 30.07F VSB 1/4 Westfield LGT RAIN 54 54 100 CALM 30.06F FOG Provincetown FOG 54 54 100 S12 30.09F VSB 3/4 Nantucket CLOUDY 55 55 100 S12 30.12F FOG $$ ANZ330-335-338-340-345-350-353-355-200400- Coastal Marine Observations STATION/POSITION TIME SKY/WX TEMP WIND PRES VSBY WAVE AIR SEA DIR/SP/G HT/PER (UTC) (F) (DEG/KT/KT) (MB) (MI) (FT/S) NY Harb Entrance 0250 54 53 160/ 4/ 8 1018.8 3/ 6 20 S Fire Island 0250 55 51 200/ 10/ 12 1019.1 4/ 8 23 SSW Montauk P 0250 56 50 210/ 14/ 16 1019.5 3/ 8 15 E Barnegat Li 0230 53 N/A 5/ 6 Hudson Canyon 0250 58 51 190/ 12/ 12 1019.7 4/ 6 Kings Point 0224 53 54 40/ 3/ 3 1019.9 Execution Rocks NOT AVBL Western LI Sound NOT AVBL Central LI Sound 0230 51 80/ 4/ 6 N/A 1 Robbins Reef 0224 57 70/ 3/ 4 1019.4 $$ >>>>>>>>>>>>>>>>>>>>>>>>>>>> KEY <<<<<<<<<<<<<<<<<<<<<<<<<<< > < > SKY/WX - Sky Condition/Present Weather < > TMP - Temperature in Fahrenheit < > DP - Dew Point in Fahrenheit < > RH - Relative Humidity in Percent < > WIND - Direction (from) and Speed in MPH < > PRES - Mean Sea Level Pressure (inches of Hg) < > WCI - Wind Chill Index < > VSB - Visibility in Miles < > HX - Heat Index < > TC - Temperature in Celsius < > VRB - Varibale Wind Direction < > < >>>>>>>>>>>>>>>>>>>>>>>>>>>> KEY <<<<<<<<<<<<<<<<<<<<<<<<<<<

USA.gov is the U.S. government's official web portal to all federal, state and local government web resources and services.